QPF
0.08 0.09 0.08 0.06 0.06 0.06 0.07 0.09 0.08 0.08 0.07 0.05 0.04 0.03 0.03 0.02 0.03 0.03 0.04 0.05 0.05 0.04 0.03 0.03 0.03 0.02 0.03 0.03 0.04 0.06 0.08 0.09 0.09 0.10 0.09 0.09 0.08 0.08
0.07 0.06 0.05 0.04 0.06 0.06 0.06 0.06 0.08 0.07 0.06 0.05 0.04 0.04 0.03 0.02 0.02 0.02 0.02 0.03 0.05 0.03 0.03 0.03 0.03 0.03 0.02 0.03 0.04 0.06 0.06 0.05 0.04 0.04 0.04 0.04 0.04 0.04
0.07 0.06 0.06 0.05 0.06 0.06 0.07 0.08 0.08 0.08 0.07 0.06 0.05 0.05 0.05 0.03 0.03 0.03 0.02 0.02 0.04 0.04 0.03 0.03 0.02 0.02 0.03 0.03 0.04 0.05 0.04 0.03 0.02 0.02 0.03 0.03 0.03 0.04
0.05 0.05 0.04 0.04 0.05 0.05 0.06 0.08 0.08 0.08 0.06 0.05 0.05 0.05 0.05 0.04 0.05 0.04 0.03 0.02 0.05 0.07 0.06 0.04 0.04 0.04 0.03 0.03 0.03 0.02 0.02 0.02 0.02 0.02 0.03 0.03 0.04 0.04
0.03 0.03 0.04 0.04 0.04 0.04 0.04 0.05 0.06 0.07 0.07 0.06 0.05 0.06 0.05 0.04 0.03 0.02 0.04 0.04 0.05 0.07 0.06 0.05 0.05 0.05 0.04 0.03 0.02 0.01 0.01 0.01 0.01 0.01 0.02 0.02 0.03 0.04
0.01 0.02 0.03 0.03 0.03 0.04 0.04 0.04 0.05 0.06 0.06 0.06 0.05 0.05 0.04 0.03 0.04 0.05 0.05 0.05 0.06 0.05 0.04 0.04 0.04 0.03 0.03 0.02 0.01 0.01 0.01 0.01 0.01 0.01 0.01 0.01 0.01 0.01
0.02 0.02 0.03 0.03 0.03 0.03 0.03 0.04 0.03 0.04 0.04 0.06 0.06 0.05 0.04 0.05 0.05 0.05 0.04 0.04 0.04 0.03 0.03 0.02 0.02 0.01 0.01 0.01 0.01 0.01 0.02 0.02 0.02 0.02 0.02 0.02 0.02 0.01
0.02 0.02 0.01 0.02 0.02 0.02 0.02 0.02 0.02 0.02 0.03 0.05 0.05 0.04 0.04 0.04 0.04 0.04 0.04 0.04 0.04 0.03 0.02 0.02 0.03 0.02 0.01 0.01 0.01 0.01 0.01 0.01 0.02 0.02 0.02 0.02 0.02 0.02
0.01 0.01 0.01 0.00 0.01 0.01 0.01 0.02 0.02 0.02 0.02 0.03 0.03 0.03 0.03 0.03 0.03 0.03 0.03 0.03 0.03 0.02 0.02 0.03 0.04 0.03 0.02 0.01 0.01 0.01 0.01 0.01 0.01 0.02 0.02 0.01 0.01 0.02
0.01 0.01 0.01 0.01 0.01 0.01 0.01 0.02 0.02 0.02 0.02 0.03 0.03 0.03 0.03 0.03 0.03 0.02 0.03 0.03 0.04 0.03 0.02 0.02 0.02 0.02 0.02 0.02 0.01 0.01 0.01 0.01 0.01 0.01 0.01 0.00 0.00 0.00
0.01 0.01 0.01 0.01 0.01 0.00 0.01 0.02 0.03 0.04 0.04 0.04 0.03 0.03 0.03 0.02 0.02 0.02 0.02 0.02 0.03 0.02 0.01 0.02 0.02 0.02 0.03 0.02 0.01 0.01 0.00 0.00 0.00 0.00 0.00 0.00 0.00 0.00
0.01 0.01 0.00 0.00 0.00 0.00 0.01 0.02 0.03 0.04 0.05 0.05 0.04 0.03 0.02 0.02 0.01 0.01 0.02 0.02 0.01 0.01 0.01 0.01 0.02 0.02 0.03 0.03 0.02 0.01 0.01 0.00 0.00 0.00 0.00 0.00 0.00 0.00
0.00 0.01 0.01 0.00 0.00 0.00 0.00 0.01 0.02 0.02 0.02 0.03 0.03 0.03 0.02 0.01 0.01 0.00 0.00 0.01 0.02 0.02 0.01 0.01 0.01 0.02 0.02 0.03 0.02 0.02 0.02 0.02 0.02 0.01 0.00 0.00 0.00 0.01
0.00 0.01 0.01 0.01 0.00 0.00 0.00 0.00 0.01 0.01 0.01 0.01 0.01 0.01 0.01 0.01 0.01 0.01 0.01 0.01 0.01 0.02 0.02 0.01 0.01 0.01 0.02 0.03 0.02 0.02 0.02 0.02 0.02 0.02 0.02 0.01 0.01 0.01
0.01 0.02 0.01 0.00 0.00 0.00 0.00 0.00 0.00 0.00 0.00 0.00 0.01 0.01 0.01 0.01 0.01 0.02 0.02 0.02 0.02 0.02 0.02 0.02 0.02 0.02 0.02 0.03 0.02 0.02 0.02 0.01 0.01 0.01 0.01 0.01 0.01 0.01
0.01 0.01 0.01 0.00 0.00 0.00 0.00 0.01 0.01 0.01 0.01 0.01 0.01 0.01 0.01 0.02 0.02 0.02 0.03 0.02 0.02 0.02 0.03 0.03 0.03 0.03 0.03 0.03 0.03 0.03 0.02 0.01 0.01 0.01 0.01 0.01 0.01 0.01
0.01 0.01 0.01 0.01 0.01 0.01 0.01 0.01 0.02 0.02 0.02 0.02 0.02 0.02 0.02 0.02 0.02 0.03 0.03 0.03 0.03 0.03 0.03 0.03 0.04 0.04 0.04 0.05 0.05 0.04 0.03 0.02 0.01 0.01 0.02 0.02 0.02 0.01
0.01 0.01 0.01 0.01 0.01 0.02 0.02 0.02 0.02 0.03 0.02 0.02 0.02 0.03 0.03 0.03 0.03 0.03 0.03 0.03 0.03 0.02 0.02 0.02 0.03 0.03 0.04 0.04 0.03 0.02 0.02 0.02 0.02 0.02 0.02 0.02 0.02 0.02
0.01 0.01 0.01 0.01 0.02 0.02 0.02 0.02 0.03 0.03 0.02 0.02 0.02 0.02 0.03 0.02 0.03 0.03 0.02 0.03 0.03 0.03 0.03 0.03 0.03 0.03 0.03 0.03 0.02 0.01 0.01 0.02 0.02 0.02 0.02 0.02 0.02 0.02
0.01 0.01 0.02 0.02 0.02 0.02 0.03 0.03 0.03 0.03 0.02 0.02 0.03 0.03 0.03 0.03 0.03 0.02 0.02 0.02 0.02 0.03 0.03 0.03 0.03 0.03 0.03 0.02 0.02 0.02 0.01 0.02 0.02 0.02 0.02 0.02 0.02 0.01
0.01 0.01 0.01 0.01 0.02 0.02 0.02 0.02 0.02 0.02 0.02 0.02 0.03 0.03 0.03 0.04 0.03 0.02 0.02 0.02 0.02 0.02 0.03 0.03 0.03 0.03 0.04 0.05 0.05 0.04 0.03 0.02 0.01 0.01 0.01 0.02 0.02 0.02
0.01 0.01 0.01 0.01 0.01 0.01 0.02 0.03 0.03 0.04 0.04 0.04 0.03 0.03 0.03 0.04 0.04 0.02 0.02 0.02 0.03 0.03 0.03 0.04 0.05 0.06 0.06 0.07 0.06 0.05 0.05 0.04 0.03 0.02 0.01 0.01 0.01 0.01
0.01 0.01 0.01 0.01 0.02 0.02 0.03 0.04 0.05 0.05 0.05 0.04 0.03 0.02 0.02 0.03 0.03 0.03 0.02 0.02 0.02 0.02 0.03 0.04 0.05 0.05 0.05 0.05 0.05 0.05 0.05 0.05 0.04 0.03 0.02 0.01 0.01 0.01
MSLP
1014.69 1014.57 1014.50 1014.49 1014.53 1014.62 1014.74 1014.89 1015.06 1015.26 1015.48 1015.72 1015.99 1016.26 1016.53 1016.75 1016.93 1017.03 1017.06 1017.03 1016.95 1016.85 1016.75 1016.68 1016.63 1016.62 1016.62 1016.61 1016.57 1016.46 1016.26 1015.98 1015.61 1015.17 1014.68 1014.17 1013.67 1013.20
1014.58 1014.44 1014.35 1014.31 1014.32 1014.39 1014.50 1014.64 1014.82 1015.02 1015.26 1015.54 1015.83 1016.14 1016.44 1016.70 1016.92 1017.07 1017.14 1017.16 1017.11 1017.04 1016.97 1016.91 1016.87 1016.86 1016.85 1016.82 1016.76 1016.62 1016.40 1016.07 1015.66 1015.16 1014.60 1014.01 1013.41 1012.84
1014.52 1014.35 1014.22 1014.15 1014.12 1014.15 1014.23 1014.35 1014.52 1014.73 1014.98 1015.27 1015.58 1015.92 1016.24 1016.54 1016.79 1016.97 1017.08 1017.13 1017.12 1017.09 1017.05 1017.01 1017.00 1017.00 1017.01 1017.00 1016.94 1016.81 1016.59 1016.27 1015.84 1015.31 1014.71 1014.07 1013.40 1012.75
1014.54 1014.34 1014.18 1014.07 1014.00 1013.99 1014.03 1014.13 1014.27 1014.46 1014.71 1014.99 1015.31 1015.65 1015.98 1016.29 1016.55 1016.75 1016.88 1016.96 1016.98 1016.98 1016.97 1016.97 1016.99 1017.03 1017.07 1017.10 1017.08 1016.99 1016.81 1016.52 1016.11 1015.60 1015.00 1014.34 1013.64 1012.94
1014.64 1014.43 1014.24 1014.09 1013.99 1013.94 1013.94 1014.00 1014.11 1014.27 1014.49 1014.75 1015.05 1015.37 1015.68 1015.98 1016.22 1016.42 1016.56 1016.64 1016.68 1016.70 1016.73 1016.77 1016.83 1016.92 1017.02 1017.10 1017.15 1017.13 1017.01 1016.78 1016.44 1015.98 1015.42 1014.78 1014.10 1013.40
1014.80 1014.58 1014.37 1014.19 1014.05 1013.97 1013.93 1013.95 1014.02 1014.14 1014.32 1014.54 1014.79 1015.07 1015.34 1015.60 1015.82 1015.99 1016.11 1016.20 1016.25 1016.30 1016.35 1016.43 1016.54 1016.69 1016.84 1017.00 1017.12 1017.17 1017.14 1017.01 1016.75 1016.38 1015.90 1015.34 1014.72 1014.07
1014.98 1014.74 1014.50 1014.30 1014.14 1014.02 1013.94 1013.92 1013.94 1014.02 1014.14 1014.30 1014.50 1014.71 1014.93 1015.14 1015.31 1015.46 1015.57 1015.65 1015.71 1015.78 1015.86 1015.98 1016.14 1016.33 1016.55 1016.77 1016.97 1017.11 1017.17 1017.14 1017.00 1016.74 1016.38 1015.93 1015.42 1014.87
1015.13 1014.86 1014.61 1014.38 1014.18 1014.03 1013.91 1013.84 1013.82 1013.83 1013.89 1013.99 1014.12 1014.27 1014.42 1014.58 1014.71 1014.83 1014.93 1015.01 1015.09 1015.18 1015.30 1015.45 1015.65 1015.89 1016.16 1016.44 1016.70 1016.93 1017.08 1017.16 1017.14 1017.01 1016.79 1016.48 1016.10 1015.69
1015.23 1014.93 1014.64 1014.38 1014.15 1013.96 1013.80 1013.68 1013.60 1013.55 1013.54 1013.57 1013.62 1013.70 1013.80 1013.91 1014.01 1014.11 1014.20 1014.29 1014.40 1014.52 1014.67 1014.87 1015.10 1015.38 1015.70 1016.02 1016.34 1016.63 1016.88 1017.05 1017.14 1017.15 1017.07 1016.92 1016.70 1016.44
1015.31 1014.96 1014.63 1014.33 1014.06 1013.82 1013.61 1013.43 1013.28 1013.16 1013.08 1013.03 1013.02 1013.03 1013.08 1013.14 1013.22 1013.30 1013.40 1013.52 1013.65 1013.82 1014.01 1014.25 1014.52 1014.84 1015.18 1015.55 1015.91 1016.26 1016.57 1016.83 1017.02 1017.15 1017.21 1017.20 1017.14 1017.03
1015.41 1015.01 1014.63 1014.28 1013.95 1013.66 1013.39 1013.14 1012.93 1012.73 1012.57 1012.45 1012.35 1012.30 1012.29 1012.31 1012.36 1012.45 1012.56 1012.70 1012.87 1013.08 1013.32 1013.60 1013.91 1014.26 1014.64 1015.03 1015.43 1015.81 1016.18 1016.50 1016.78 1017.01 1017.18 1017.30 1017.37 1017.41
1015.58 1015.13 1014.70 1014.30 1013.92 1013.56 1013.23 1012.92 1012.62 1012.35 1012.10 1011.89 1011.72 1011.59 1011.51 1011.48 1011.51 1011.58 1011.70 1011.86 1012.06 1012.31 1012.59 1012.91 1013.26 1013.65 1014.05 1014.47 1014.89 1015.31 1015.71 1016.08 1016.42 1016.72 1016.98 1017.19 1017.37 1017.52
1015.86 1015.37 1014.90 1014.45 1014.02 1013.61 1013.22 1012.83 1012.46 1012.11 1011.77 1011.46 1011.20 1010.98 1010.83 1010.74 1010.71 1010.75 1010.85 1011.01 1011.23 1011.50 1011.82 1012.17 1012.56 1012.97 1013.40 1013.84 1014.28 1014.72 1015.14 1015.55 1015.92 1016.27 1016.58 1016.87 1017.12 1017.35
1016.25 1015.73 1015.23 1014.75 1014.29 1013.84 1013.39 1012.95 1012.51 1012.08 1011.65 1011.25 1010.89 1010.57 1010.32 1010.14 1010.03 1010.01 1010.06 1010.19 1010.40 1010.67 1010.99 1011.36 1011.77 1012.20 1012.65 1013.10 1013.56 1014.02 1014.45 1014.87 1015.27 1015.64 1015.99 1016.31 1016.61 1016.88
1016.70 1016.18 1015.67 1015.18 1014.71 1014.24 1013.77 1013.29 1012.80 1012.30 1011.80 1011.30 1010.83 1010.41 1010.04 1009.74 1009.53 1009.41 1009.38 1009.44 1009.59 1009.82 1010.12 1010.47 1010.87 1011.31 1011.76 1012.23 1012.69 1013.15 1013.60 1014.02 1014.43 1014.81 1015.17 1015.51 1015.83 1016.14
1017.15 1016.65 1016.16 1015.70 1015.24 1014.78 1014.32 1013.82 1013.31 1012.76 1012.20 1011.62 1011.06 1010.52 1010.02 1009.59 1009.25 1008.99 1008.84 1008.79 1008.84 1008.99 1009.22 1009.52 1009.89 1010.30 1010.73 1011.19 1011.65 1012.10 1012.55 1012.97 1013.38 1013.77 1014.13 1014.48 1014.82 1015.14
1017.53 1017.07 1016.63 1016.22 1015.80 1015.39 1014.95 1014.48 1013.97 1013.41 1012.81 1012.18 1011.53 1010.88 1010.26 1009.70 1009.20 1008.79 1008.48 1008.28 1008.19 1008.21 1008.34 1008.55 1008.84 1009.19 1009.58 1010.00 1010.44 1010.88 1011.31 1011.73 1012.14 1012.53 1012.90 1013.26 1013.62 1013.97
1017.81 1017.40 1017.03 1016.67 1016.33 1015.98 1015.61 1015.19 1014.71 1014.17 1013.57 1012.90 1012.20 1011.46 1010.74 1010.03 1009.38 1008.80 1008.31 1007.94 1007.69 1007.55 1007.53 1007.62 1007.80 1008.06 1008.37 1008.74 1009.13 1009.53 1009.94 1010.35 1010.75 1011.15 1011.54 1011.92 1012.30 1012.70
1017.96 1017.63 1017.32 1017.05 1016.78 1016.52 1016.22 1015.87 1015.46 1014.96 1014.38 1013.71 1012.97 1012.18 1011.36 1010.53 1009.74 1009.00 1008.34 1007.78 1007.35 1007.04 1006.85 1006.79 1006.83 1006.97 1007.19 1007.47 1007.80 1008.15 1008.53 1008.91 1009.31 1009.71 1010.12 1010.54 1010.97 1011.42
1018.03 1017.76 1017.53 1017.33 1017.15 1016.96 1016.75 1016.48 1016.14 1015.70 1015.16 1014.51 1013.77 1012.94 1012.05 1011.13 1010.22 1009.33 1008.52 1007.79 1007.18 1006.70 1006.35 1006.12 1006.02 1006.03 1006.13 1006.31 1006.55 1006.84 1007.17 1007.52 1007.90 1008.30 1008.73 1009.18 1009.67 1010.19
1018.08 1017.86 1017.69 1017.55 1017.44 1017.32 1017.18 1016.98 1016.71 1016.33 1015.84 1015.23 1014.49 1013.65 1012.72 1011.74 1010.73 1009.74 1008.79 1007.92 1007.17 1006.53 1006.02 1005.65 1005.41 1005.29 1005.27 1005.34 1005.49 1005.70 1005.96 1006.26 1006.61 1007.00 1007.44 1007.92 1008.45 1009.02
1018.14 1017.97 1017.83 1017.74 1017.67 1017.60 1017.51 1017.37 1017.15 1016.82 1016.37 1015.79 1015.07 1014.22 1013.27 1012.25 1011.18 1010.12 1009.08 1008.11 1007.24 1006.49 1005.87 1005.38 1005.02 1004.78 1004.65 1004.61 1004.66 1004.78 1004.96 1005.19 1005.49 1005.84 1006.26 1006.74 1007.29 1007.91
1018.25 1018.10 1017.98 1017.91 1017.86 1017.82 1017.75 1017.64 1017.44 1017.14 1016.72 1016.15 1015.44 1014.60 1013.64 1012.60 1011.51 1010.40 1009.31 1008.29 1007.35 1006.53 1005.83 1005.26 1004.82 1004.49 1004.27 1004.13 1004.08 1004.10 1004.18 1004.32 1004.54 1004.82 1005.18 1005.62 1006.15 1006.77
Thickness
5756 5754 5751 5750 5748 5745 5742 5736 5726 5715 5708 5707 5706 5705 5704 5701 5699 5696 5694 5692 5690 5689 5687 5686 5684 5682 5681 5679 5678 5676 5674 5672 5671 5670 5669 5667 5666 5666
5753 5750 5748 5747 5745 5743 5740 5737 5731 5721 5710 5706 5703 5702 5700 5697 5694 5691 5688 5686 5683 5682 5680 5678 5676 5674 5672 5670 5669 5667 5664 5663 5661 5660 5659 5658 5657 5656
5749 5747 5744 5744 5741 5739 5736 5733 5727 5721 5709 5702 5699 5697 5695 5692 5688 5685 5683 5680 5677 5674 5672 5670 5668 5666 5664 5662 5659 5657 5655 5653 5651 5650 5649 5648 5647 5646
5744 5742 5740 5739 5736 5734 5731 5727 5723 5718 5710 5700 5695 5692 5690 5688 5684 5681 5679 5675 5671 5668 5665 5663 5660 5658 5655 5653 5650 5648 5646 5643 5641 5640 5638 5637 5636 5635
5740 5738 5736 5734 5730 5728 5726 5722 5718 5714 5708 5700 5693 5689 5686 5684 5680 5677 5675 5671 5667 5662 5658 5655 5652 5650 5647 5644 5641 5639 5636 5634 5632 5630 5628 5626 5625 5623
5737 5734 5731 5729 5726 5724 5721 5717 5713 5708 5703 5697 5691 5686 5682 5679 5676 5671 5667 5666 5662 5658 5653 5649 5645 5642 5639 5636 5633 5630 5627 5624 5622 5620 5617 5615 5614 5612
5732 5729 5727 5724 5721 5719 5716 5712 5708 5703 5698 5693 5688 5682 5677 5673 5670 5668 5663 5660 5656 5653 5648 5643 5639 5635 5631 5628 5625 5622 5619 5616 5613 5610 5608 5605 5603 5602
5727 5724 5722 5719 5716 5713 5710 5707 5704 5699 5694 5689 5684 5679 5674 5670 5667 5664 5659 5654 5649 5648 5644 5639 5635 5630 5626 5622 5618 5615 5611 5608 5605 5602 5599 5596 5594 5592
5722 5720 5718 5714 5711 5707 5704 5701 5697 5694 5691 5686 5680 5676 5672 5668 5664 5659 5655 5650 5646 5644 5640 5634 5631 5626 5622 5617 5613 5609 5605 5601 5598 5594 5591 5589 5586 5584
5717 5714 5710 5706 5704 5701 5699 5695 5691 5687 5685 5681 5678 5673 5669 5665 5661 5657 5651 5647 5644 5640 5637 5630 5627 5622 5618 5612 5607 5603 5599 5595 5591 5588 5585 5582 5579 5576
5711 5707 5704 5700 5696 5694 5692 5688 5684 5680 5677 5675 5672 5668 5664 5659 5655 5651 5646 5641 5636 5633 5632 5626 5622 5617 5612 5607 5602 5598 5594 5590 5586 5583 5580 5577 5574 5571
5705 5701 5697 5693 5690 5687 5685 5681 5677 5674 5671 5668 5664 5660 5657 5653 5649 5645 5641 5636 5631 5627 5625 5621 5617 5612 5606 5603 5598 5593 5588 5585 5581 5578 5575 5572 5568 5565
5700 5696 5691 5687 5684 5681 5678 5675 5671 5668 5666 5662 5658 5654 5650 5647 5643 5640 5637 5632 5627 5623 5621 5617 5612 5607 5603 5598 5594 5590 5586 5582 5577 5574 5570 5567 5563 5560
5695 5691 5686 5681 5678 5674 5672 5669 5666 5663 5660 5656 5652 5648 5645 5641 5638 5635 5631 5628 5624 5620 5617 5612 5608 5603 5597 5592 5589 5587 5583 5580 5575 5571 5567 5563 5559 5555
5688 5684 5679 5675 5671 5668 5665 5662 5659 5656 5654 5650 5647 5644 5641 5638 5634 5629 5626 5622 5619 5615 5612 5608 5604 5600 5595 5589 5586 5583 5579 5576 5573 5568 5563 5559 5555 5551
5680 5676 5671 5668 5665 5663 5660 5657 5654 5651 5649 5646 5643 5640 5637 5632 5628 5624 5619 5615 5611 5608 5607 5603 5599 5595 5590 5587 5583 5578 5575 5571 5568 5564 5559 5555 5552 5548
5674 5670 5666 5662 5659 5657 5655 5652 5649 5646 5642 5640 5637 5634 5630 5627 5623 5620 5615 5610 5606 5602 5599 5597 5593 5589 5586 5582 5577 5574 5571 5567 5564 5559 5554 5550 5547 5544
5668 5666 5663 5660 5656 5653 5649 5646 5643 5640 5637 5634 5631 5627 5624 5620 5617 5614 5610 5605 5601 5597 5594 5591 5587 5582 5577 5575 5572 5569 5566 5562 5559 5555 5550 5545 5542 5540
5663 5662 5659 5656 5652 5649 5646 5642 5639 5636 5632 5628 5624 5621 5618 5614 5610 5607 5603 5599 5595 5592 5589 5585 5581 5575 5570 5566 5566 5564 5560 5557 5553 5549 5546 5542 5538 5536
5659 5657 5655 5652 5648 5645 5642 5639 5635 5631 5626 5622 5618 5614 5611 5607 5604 5600 5597 5593 5590 5586 5583 5580 5576 5572 5567 5563 5561 5559 5556 5552 5548 5544 5541 5538 5534 5531
5655 5653 5650 5648 5645 5641 5637 5633 5629 5624 5620 5615 5611 5607 5605 5601 5598 5595 5592 5588 5584 5581 5577 5574 5572 5569 5565 5560 5556 5554 5551 5548 5545 5540 5536 5532 5528 5524
5652 5649 5646 5643 5639 5636 5631 5627 5623 5618 5613 5608 5604 5601 5599 5596 5592 5589 5586 5582 5578 5575 5572 5569 5567 5563 5559 5554 5551 5548 5546 5543 5539 5535 5532 5528 5523 5519
5646 5644 5641 5637 5633 5629 5625 5621 5616 5612 5607 5602 5598 5595 5593 5590 5587 5584 5581 5577 5573 5569 5566 5563 5560 5557 5554 5550 5546 5543 5541 5537 5534 5529 5526 5524 5521 5518